Location: Riverton
(43.0250°N, 108.3790°W)
Time: 15:04:54
(UTC-06:00)

Amateur Radio Satellites - All Passes

Search period start: 24 April 2017 14:34
Search period end: 25 April 2017 14:34
Location: Riverton, 43.0250°N, 108.3790°W

Satellite Date Start Highest point End Downlink Frequencies (MHz)
Time Altitude Azimuth
ESTCUBE 1 24 Apr 14:35:12 14:35:42 10° 302° (WNW) 14:36:12 437.505/2401.250
50 SAT 24 Apr 14:36:54 14:39:59 29° 290° (WNW) 14:43:02 437.505
SPROUT 24 Apr 14:42:37 14:45:58 23° 293° (WNW) 14:49:18 437.525
YUBILEINY 24 Apr 14:46:58 14:53:32 23° 63° (ENE) 15:00:06 435.215
Tancredo 1 24 Apr 14:50:32 14:53:21 30° 22° (NNE) 14:56:09 437.200
Oscar 19 24 Apr 14:50:36 14:54:56 27° 265° (W) 14:59:18 437.125/150
ISS 24 Apr 14:52:59 14:55:53 29° 20° (NNE) 14:58:47 437.550
VELOX 1 24 Apr 14:57:14 15:00:11 18° 297° (WNW) 15:03:07 145.980
SO-50 24 Apr 15:06:52 15:10:22 21° 41° (NE) 15:13:50 436.795
BEESAT 24 Apr 15:23:37 15:27:25 23° 94° (E) 15:31:12 436.000
RS-15 24 Apr 15:24:08 15:35:29 39° 33° (NNE) 15:46:25 29.354- 29.394
UKube-1 24 Apr 15:28:53 15:32:30 27° 293° (WNW) 15:36:07 .
AO-85 24 Apr 15:39:13 15:41:35 15° 320° (NW) 15:43:55 145.980
MOZHAYETS 4 24 Apr 15:39:43 15:42:40 17° 91° (E) 15:45:35
BEESAT 2 24 Apr 15:52:59 15:56:57 89° 122° (ESE) 16:01:00 435.950
DX 1 24 Apr 15:58:50 15:59:57 11° 301° (WNW) 16:01:04 434.975-435.025
BEESAT 3 24 Apr 16:00:21 16:03:56 32° 312° (NW) 16:07:34 437.485
ITUPSAT 1 24 Apr 16:01:54 16:06:36 54° 101° (E) 16:11:16 437.325
AO-7 24 Apr 16:03:21 16:11:38 75° 253° (WSW) 16:19:58 .
ITAMSAT 1 24 Apr 16:09:59 16:15:02 51° 260° (W) 16:20:06 435.822/435.867
Tancredo 1 24 Apr 16:26:23 16:29:20 40° 220° (SW) 16:32:16 437.200
ISS 24 Apr 16:29:20 16:32:31 52° 218° (SW) 16:35:41 437.550
YUBILEINY 24 Apr 16:42:39 16:51:26 83° 264° (W) 17:00:14 435.215
SO-50 24 Apr 16:46:45 16:51:09 56° 240° (WSW) 16:55:33 436.795
DOVE 4 24 Apr 16:54:44 16:58:00 17° 62° (ENE) 17:01:14 437.250
BEESAT 24 Apr 17:00:53 17:05:18 39° 291° (WNW) 17:09:43 436.000
CUTE-I 24 Apr 17:03:19 17:05:43 13° 57° (ENE) 17:08:07 437.470
MOZHAYETS 4 24 Apr 17:15:38 17:20:07 52° 288° (WNW) 17:24:35
XW-2D 24 Apr 17:33:12 17:35:36 17° 66° (ENE) 17:38:02 145.860 - 145.880
BEESAT 2 24 Apr 17:33:17 17:35:19 13° 322° (NW) 17:37:22 435.950
RS-15 24 Apr 17:37:09 17:49:27 83° 240° (WSW) 18:01:09 29.354- 29.394
XW-2B 24 Apr 17:39:46 17:42:26 19° 67° (ENE) 17:45:06 145.730 - 145.750
ITUPSAT 1 24 Apr 17:40:46 17:44:01 18° 298° (WNW) 17:47:14 437.325
KKS-1 24 Apr 17:45:17 17:49:41 58° 101° (E) 17:54:02 437.445
LilacSat-2 24 Apr 17:47:28 17:50:32 24° 69° (ENE) 17:53:38 437.200
HO-68 24 Apr 17:50:10 17:54:02 16° 50° (NE) 17:57:52 435.675
XW-2C 24 Apr 17:51:03 17:54:09 25° 69° (ENE) 17:57:17 145.795 - 145.815
KAITUO 1B 24 Apr 17:54:50 17:57:44 22° 68° (ENE) 18:00:38 145.475/437.950
CUBESAT XI-V 24 Apr 17:59:55 18:04:40 82° 102° (ESE) 18:09:23 437.345
AO-7 24 Apr 18:01:42 18:05:44 14° 273° (W) 18:09:47 .
XW-2F 24 Apr 18:17:46 18:21:22 51° 74° (ENE) 18:25:00 145.980 - 146.000
STARS 24 Apr 18:23:45 18:28:07 66° 102° (ESE) 18:32:26 437.465
DOVE 4 24 Apr 18:29:46 18:35:04 73° 258° (WSW) 18:40:20 437.250
NUDT-PHONESAT 24 Apr 18:36:26 18:40:04 72° 76° (ENE) 18:43:45 437.300
CUTE-I 24 Apr 18:39:36 18:44:57 87° 76° (ENE) 18:50:20 437.470
YUBILEINY 24 Apr 18:41:52 18:46:47 17° 285° (WNW) 18:51:45 435.215
XW-2D 24 Apr 19:06:05 19:09:31 35° 262° (W) 19:13:00 145.860 - 145.880
XW-2B 24 Apr 19:13:06 19:16:25 30° 263° (W) 19:19:47 145.730 - 145.750
CUTE 1.7 + AOD 2 24 Apr 19:15:37 19:19:22 33° 70° (ENE) 19:23:11 437.475
STRAND 1 24 Apr 19:18:14 19:19:57 12° 88° (E) 19:21:39 437.568
LilacSat-2 24 Apr 19:21:42 19:24:45 23° 265° (W) 19:27:49 437.200
AAUSAT CUBESAT 2 24 Apr 19:21:43 19:23:33 13° 62° (ENE) 19:25:25 437.432
XW-2A 24 Apr 19:23:11 19:26:18 37° 73° (ENE) 19:29:26 145.665 - 145.685
KKS-1 24 Apr 19:23:12 19:25:46 15° 298° (WNW) 19:28:18 437.445
XW-2C 24 Apr 19:25:22 19:28:18 22° 265° (W) 19:31:17 145.795 - 145.815
KAITUO 1B 24 Apr 19:28:35 19:31:38 24° 265° (W) 19:34:43 145.475/437.950
HO-68 24 Apr 19:33:25 19:40:31 72° 70° (ENE) 19:47:40 435.675
CUBESAT XI-V 24 Apr 19:39:25 19:41:21 12° 300° (WNW) 19:43:18 437.345
SEEDS 24 Apr 19:39:54 19:43:47 39° 71° (ENE) 19:47:44 437.485
O/OREOS (USA 219) 24 Apr 19:43:02 19:45:36 15° 50° (NE) 19:48:10 437.305
UWE-3 24 Apr 19:49:30 19:52:50 23° 67° (ENE) 19:56:08 435.000/436.395/437.385
RS-15 24 Apr 19:51:46 19:59:56 22° 262° (W) 20:07:53 29.354- 29.394
XW-2F 24 Apr 19:54:45 19:55:50 11° 270° (W) 19:56:54 145.980 - 146.000
CUBEBUG 2 24 Apr 19:56:53 20:01:04 44° 72° (ENE) 20:05:08 437.445
STARS 24 Apr 20:01:49 20:03:54 13° 299° (WNW) 20:06:00 437.465
M-CUBED/EXP-1 PRIME 24 Apr 20:14:39 20:18:21 28° 100° (E) 20:21:47 437.505
CUTE-I 24 Apr 20:23:38 20:25:41 12° 272° (W) 20:27:43 437.470
NO-84 24 Apr 20:42:35 20:46:06 44° 135° (SE) 20:49:19 435.350 FM
AO-85 24 Apr 20:47:59 20:49:30 12° 37° (NE) 20:51:02 145.980
ZACube-1 24 Apr 20:49:10 20:53:18 56° 73° (ENE) 20:57:23 437.345
CUTE 1.7 + AOD 2 24 Apr 20:52:00 20:55:16 22° 267° (W) 20:58:34 437.475
AAUSAT CUBESAT 2 24 Apr 20:54:25 20:58:29 62° 259° (W) 21:02:38 437.432
STRAND 1 24 Apr 20:54:38 20:59:46 85° 285° (WNW) 21:04:52 437.568
AO-73 24 Apr 20:57:22 21:01:31 63° 75° (ENE) 21:05:37 145.935
XW-2A 24 Apr 20:57:55 20:59:14 12° 268° (W) 21:00:34 145.665 - 145.685
Oscar 11 24 Apr 21:15:29 21:19:46 85° 78° (ENE) 21:24:07 .
SEEDS 24 Apr 21:16:45 21:19:39 18° 268° (W) 21:22:33 437.485
O/OREOS (USA 219) 24 Apr 21:20:59 21:25:35 73° 248° (WSW) 21:30:05 437.305
HO-68 24 Apr 21:23:32 21:28:51 22° 268° (W) 21:34:13 435.675
UWE-3 24 Apr 21:25:16 21:29:08 32° 263° (W) 21:32:57 435.000/436.395/437.385
CUBEBUG 2 24 Apr 21:34:58 21:37:52 17° 268° (W) 21:40:44 437.445
OBJECT BX 24 Apr 21:38:29 21:41:40 30° 71° (ENE) 21:44:53 145.990 - 145.960
M-CUBED/EXP-1 PRIME 24 Apr 21:49:05 21:52:42 27° 299° (WNW) 21:56:05 437.505
DELFI C3 24 Apr 21:58:18 22:02:16 74° 74° (ENE) 22:06:17 145.870
FO-29 24 Apr 22:09:04 22:10:09 11° 88° (E) 22:11:13 435.910
NO-84 24 Apr 22:20:48 22:23:44 25° 331° (NNW) 22:26:29 435.350 FM
TIGRISAT 24 Apr 22:21:09 22:23:45 16° 92° (E) 22:26:22 435.000
ESTCUBE 1 24 Apr 22:22:12 22:23:30 11° 59° (ENE) 22:24:46 437.505/2401.250
AO-85 24 Apr 22:26:32 22:30:30 82° 54° (NE) 22:34:38 145.980
ZACube-1 24 Apr 22:28:05 22:29:55 13° 270° (W) 22:31:45 437.345
BEESAT 2 24 Apr 22:33:59 22:35:19 11° 35° (NE) 22:36:38 435.950
STRAND 1 24 Apr 22:36:16 22:38:08 12° 303° (WNW) 22:40:00 437.568
AO-73 24 Apr 22:36:55 22:38:09 11° 271° (W) 22:39:23 145.935
BEESAT 3 24 Apr 22:38:44 22:42:00 23° 45° (NE) 22:45:14 437.485
UNISAT 6 24 Apr 22:40:52 22:44:33 27° 96° (E) 22:48:15 437.425
PRISM 24 Apr 22:47:28 22:51:32 52° 100° (E) 22:55:34 437.425
LO-87 24 Apr 22:49:29 22:52:40 29° 70° (ENE) 22:55:51 145.935 - 145.965
OBJECT BX 24 Apr 23:12:55 23:15:25 17° 267° (W) 23:17:56 145.990 - 145.960
FO-29 24 Apr 23:50:43 23:55:56 87° 285° (WNW) 00:01:24 435.910
NANOSAT C BR1 24 Apr 23:52:02 23:52:31 10° 89° (E) 23:53:00 145.865
ESTCUBE 1 24 Apr 23:55:05 23:59:35 86° 260° (W) 00:04:08 437.505/2401.250
TIGRISAT 24 Apr 23:56:36 00:00:41 47° 288° (WNW) 00:04:49 435.000
SPROUT 25 Apr 00:00:33 00:04:14 28° 68° (ENE) 00:07:54 437.525
NO-84 25 Apr 00:01:59 00:02:09 10° 351° (N) 00:02:18 435.350 FM
BEESAT 2 25 Apr 00:09:46 00:13:50 69° 54° (NE) 00:17:52 435.950
BEESAT 3 25 Apr 00:15:58 00:19:43 39° 243° (WSW) 00:23:25 437.485
EO-79 25 Apr 00:16:01 00:19:18 22° 94° (E) 00:22:34 145.935-145.965
VELOX 1 25 Apr 00:17:32 00:21:49 48° 72° (ENE) 00:26:08 145.980
UNISAT 6 25 Apr 00:17:36 00:21:12 27° 292° (WNW) 00:24:49 437.425
DUCHIFAT 1 25 Apr 00:20:40 00:23:46 20° 94° (E) 00:26:52 145.980
LO-87 25 Apr 00:23:35 00:26:09 18° 266° (W) 00:28:43 145.935 - 145.965
PRISM 25 Apr 00:24:01 00:26:24 15° 297° (WNW) 00:28:44 437.425
AIST 2D 25 Apr 00:41:12 00:44:44 89° 273° (W) 00:48:15 435.315
UKube-1 25 Apr 00:48:02 00:51:44 28° 67° (ENE) 00:55:26 .
POLYITAN 1 25 Apr 00:54:00 00:58:08 58° 100° (E) 01:02:16 437.675
QB50P2 25 Apr 01:00:27 01:04:40 75° 102° (ESE) 01:08:52 145.880/145.840
50 SAT 25 Apr 01:09:46 01:13:14 71° 258° (WSW) 01:16:45 437.505
DX 1 25 Apr 01:15:59 01:20:21 80° 75° (ENE) 01:24:47 434.975-435.025
Oscar 19 25 Apr 01:23:15 01:25:18 12° 88° (E) 01:27:21 437.125/150
NANOSAT C BR1 25 Apr 01:24:31 01:28:42 70° 285° (WNW) 01:32:51 145.865
BUGSAT 1 25 Apr 01:30:19 01:34:03 36° 98° (E) 01:37:45 437.445
SPROUT 25 Apr 01:36:29 01:40:05 26° 265° (W) 01:43:42 437.525
FO-29 25 Apr 01:38:32 01:40:18 12° 303° (WNW) 01:42:05 435.910
NO-84 25 Apr 01:39:43 01:40:52 12° 14° (NNE) 01:41:59 435.350 FM
BEESAT 2 25 Apr 01:49:39 01:51:02 11° 252° (WSW) 01:52:24 435.950
PCSat 25 Apr 01:50:15 01:51:08 10° 101° (E) 01:52:02 145.827
EO-79 25 Apr 01:51:21 01:55:06 32° 291° (WNW) 01:58:51 145.935-145.965
VELOX 1 25 Apr 01:55:38 01:58:31 17° 268° (W) 02:01:25 145.980
DUCHIFAT 1 25 Apr 01:55:45 01:59:32 35° 290° (WNW) 02:03:19 145.980
UKube-1 25 Apr 02:24:00 02:27:42 27° 264° (W) 02:31:25 .
BEESAT 25 Apr 02:30:44 02:34:52 30° 67° (ENE) 02:39:00 436.000
POLYITAN 1 25 Apr 02:31:19 02:33:27 14° 298° (WNW) 02:35:35 437.675
QB50P2 25 Apr 02:38:40 02:39:51 11° 299° (WNW) 02:41:02 145.880/145.840
MOZHAYETS 4 25 Apr 02:42:40 02:45:46 18° 64° (ENE) 02:48:52
Gurwin Techsat 1B 25 Apr 02:45:57 02:51:01 43° 98° (E) 02:56:04 435.225
Oscar 19 25 Apr 03:00:01 03:05:15 83° 284° (WNW) 03:10:27 437.125/150
BUGSAT 1 25 Apr 03:06:21 03:09:09 19° 295° (WNW) 03:11:57 437.445
ITUPSAT 1 25 Apr 03:09:18 03:14:01 71° 73° (ENE) 03:18:46 437.325
NO-84 25 Apr 03:16:13 03:19:02 44° 35° (NE) 03:21:46 435.350 FM
PCSat 25 Apr 03:28:11 03:33:36 79° 118° (ESE) 03:39:03 145.827
CUBESAT XI-V 25 Apr 03:30:47 03:31:46 11° 58° (ENE) 03:32:44 437.345
YUBILEINY 25 Apr 03:50:36 03:57:02 24° 80° (E) 04:03:27 435.215
AO-7 25 Apr 04:04:11 04:11:39 35° 97° (E) 04:19:05 .
BEESAT 25 Apr 04:08:25 04:12:35 30° 264° (W) 04:16:46 436.000
MOZHAYETS 4 25 Apr 04:18:09 04:22:33 48° 261° (W) 04:26:59
ITAMSAT 1 25 Apr 04:21:39 04:26:43 51° 100° (E) 04:31:44 435.822/435.867
Gurwin Techsat 1B 25 Apr 04:26:23 04:30:44 26° 296° (WNW) 04:35:03 435.225
Oscar 19 25 Apr 04:41:44 04:43:44 12° 303° (WNW) 04:45:44 437.125/150
KKS-1 25 Apr 04:43:48 04:48:12 60° 73° (ENE) 04:52:38 437.445
ITUPSAT 1 25 Apr 04:50:13 04:52:20 13° 270° (W) 04:54:28 437.325
NO-84 25 Apr 04:54:39 04:56:13 14° 232° (SW) 04:57:46 435.350 FM
CUBESAT XI-V 25 Apr 05:03:43 05:08:21 87° 75° (ENE) 05:13:03 437.345
PCSat 25 Apr 05:13:41 05:17:38 20° 318° (NW) 05:21:36 145.827
STARS 25 Apr 05:20:47 05:25:10 66° 73° (ENE) 05:29:33 437.465
YUBILEINY 25 Apr 05:44:12 05:52:53 75° 280° (W) 06:01:38 435.215
AO-7 25 Apr 05:56:40 06:04:41 55° 296° (WNW) 06:12:42 .
RS-15 25 Apr 05:57:11 06:01:48 13° 92° (E) 06:06:28 29.354- 29.394
ITAMSAT 1 25 Apr 06:01:55 06:05:49 22° 298° (WNW) 06:09:41 435.822/435.867
KKS-1 25 Apr 06:22:55 06:25:09 14° 269° (W) 06:27:23 437.445
DOVE 4 25 Apr 06:28:47 06:32:49 28° 94° (E) 06:36:37 437.250
STRAND 1 25 Apr 06:34:04 06:37:45 20° 62° (ENE) 06:41:26 437.568
XW-2D 25 Apr 06:37:51 06:40:44 20° 94° (E) 06:43:38 145.860 - 145.880
XW-2B 25 Apr 06:44:33 06:47:40 23° 95° (E) 06:50:46 145.730 - 145.750
LilacSat-2 25 Apr 06:53:11 06:56:38 31° 97° (E) 07:00:06 437.200
CUTE-I 25 Apr 06:56:03 07:00:46 32° 96° (E) 07:05:27 437.470
XW-2C 25 Apr 06:56:07 06:59:34 32° 97° (E) 07:03:02 145.795 - 145.815
KAITUO 1B 25 Apr 06:58:18 07:01:33 27° 96° (E) 07:04:48 145.475/437.950
M-CUBED/EXP-1 PRIME 25 Apr 07:00:00 07:04:22 45° 66° (ENE) 07:08:51 437.505
STARS 25 Apr 07:00:10 07:01:56 12° 270° (W) 07:03:43 437.465
SO-50 25 Apr 07:01:39 07:05:52 36° 116° (ESE) 07:10:04 436.795
HO-68 25 Apr 07:03:44 07:05:47 11° 85° (E) 07:07:49 435.675
XW-2F 25 Apr 07:22:43 07:26:31 68° 102° (ESE) 07:30:18 145.980 - 146.000
NUDT-PHONESAT 25 Apr 07:39:35 07:43:19 90° 350° (N) 07:47:02 437.300
YUBILEINY 25 Apr 07:46:26 07:51:23 16° 303° (WNW) 07:56:24 435.215
AO-7 25 Apr 07:51:54 07:55:39 14° 318° (NW) 07:59:25 .
RS-15 25 Apr 07:59:47 08:11:30 62° 114° (ESE) 08:23:33 29.354- 29.394
DOVE 4 25 Apr 08:06:24 08:10:28 29° 293° (WNW) 08:14:18 437.250
STRAND 1 25 Apr 08:11:32 08:16:31 54° 259° (W) 08:21:32 437.568
XW-2D 25 Apr 08:11:39 08:14:57 28° 290° (WNW) 08:18:14 145.860 - 145.880
XW-2A 25 Apr 08:16:35 08:19:41 34° 98° (E) 08:22:46 145.665 - 145.685
XW-2B 25 Apr 08:18:39 08:21:47 25° 291° (WNW) 08:24:56 145.730 - 145.750
LilacSat-2 25 Apr 08:27:57 08:30:43 19° 293° (WNW) 08:33:30 437.200
XW-2C 25 Apr 08:30:51 08:33:33 19° 293° (WNW) 08:36:14 145.795 - 145.815
KAITUO 1B 25 Apr 08:32:32 08:35:25 21° 292° (WNW) 08:38:19 145.475/437.950
CUTE 1.7 + AOD 2 25 Apr 08:34:33 08:38:49 58° 100° (E) 08:43:02 437.475
M-CUBED/EXP-1 PRIME 25 Apr 08:35:28 08:38:57 21° 262° (W) 08:42:31 437.505
CUTE-I 25 Apr 08:36:01 08:40:48 35° 293° (WNW) 08:45:33 437.470
AAUSAT CUBESAT 2 25 Apr 08:36:14 08:39:16 19° 93° (E) 08:42:15 437.432
SO-50 25 Apr 08:42:17 08:46:21 30° 314° (NW) 08:50:25 436.795
AO-73 25 Apr 08:46:30 08:47:35 11° 89° (E) 08:48:40 145.935
HO-68 25 Apr 08:47:32 08:54:44 70° 104° (ESE) 09:01:54 435.675
SEEDS 25 Apr 08:57:48 09:02:04 69° 101° (ESE) 09:06:18 437.485
Tancredo 1 25 Apr 09:01:01 09:03:43 27° 137° (SE) 09:06:25 437.200
Oscar 11 25 Apr 09:03:03 09:05:30 15° 91° (E) 09:07:57 .
ISS 25 Apr 09:09:53 09:12:41 27° 137° (SE) 09:15:30 437.550
UWE-3 25 Apr 09:13:08 09:17:07 41° 99° (E) 09:21:08 435.000/436.395/437.385
TIGRISAT 25 Apr 09:20:57 09:23:44 17° 64° (ENE) 09:26:30 435.000
CUBEBUG 2 25 Apr 09:22:43 09:26:53 90° 259° (W) 09:31:06 437.445
PRISM 25 Apr 09:37:17 09:41:11 41° 71° (ENE) 09:45:08 437.425
UNISAT 6 25 Apr 09:40:33 09:44:18 28° 68° (ENE) 09:48:00 437.425
XW-2A 25 Apr 09:50:25 09:52:09 14° 294° (WNW) 09:53:54 145.665 - 145.685
O/OREOS (USA 219) 25 Apr 09:58:11 09:59:40 11° 97° (E) 10:01:09 437.305
FO-29 25 Apr 10:03:31 10:09:30 45° 70° (ENE) 10:14:53 435.910
AAUSAT CUBESAT 2 25 Apr 10:10:57 10:14:50 37° 289° (WNW) 10:18:42 437.432
CUTE 1.7 + AOD 2 25 Apr 10:11:53 10:14:10 14° 297° (WNW) 10:16:26 437.475
ZACube-1 25 Apr 10:12:11 10:16:23 74° 286° (WNW) 10:20:39 437.345
RS-15 25 Apr 10:12:49 10:24:30 49° 319° (NW) 10:36:28 29.354- 29.394
AO-73 25 Apr 10:20:04 10:24:14 67° 285° (WNW) 10:28:28 145.935
PCSat 25 Apr 10:33:01 10:36:17 16° 38° (NE) 10:39:33 145.827
SEEDS 25 Apr 10:35:29 10:37:11 12° 298° (WNW) 10:38:53 437.485
HO-68 25 Apr 10:36:11 10:41:50 26° 303° (WNW) 10:47:30 435.675
Tancredo 1 25 Apr 10:36:37 10:39:33 39° 335° (NNW) 10:42:30 437.200
Oscar 11 25 Apr 10:37:42 10:41:56 52° 287° (WNW) 10:46:09 .
OBJECT BX 25 Apr 10:39:33 10:42:55 34° 97° (E) 10:46:16 145.990 - 145.960
ISS 25 Apr 10:45:56 10:49:03 42° 334° (NNW) 10:52:11 437.550
UWE-3 25 Apr 10:50:27 10:53:17 18° 294° (WNW) 10:56:07 435.000/436.395/437.385
TIGRISAT 25 Apr 10:55:48 11:00:04 49° 261° (W) 11:04:16 435.000
DELFI C3 25 Apr 11:09:00 11:13:01 76° 284° (WNW) 11:17:00 145.870
EO-79 25 Apr 11:09:32 11:12:35 20° 65° (ENE) 11:15:36 145.935-145.965
DUCHIFAT 1 25 Apr 11:13:40 11:16:29 18° 65° (ENE) 11:19:18 145.980
PRISM 25 Apr 11:13:54 11:16:39 17° 267° (W) 11:19:25 437.425
AIST 2D 25 Apr 11:16:25 11:19:35 34° 72° (ENE) 11:22:46 435.315
UNISAT 6 25 Apr 11:17:11 11:20:57 27° 264° (W) 11:24:41 437.425
O/OREOS (USA 219) 25 Apr 11:33:48 11:38:23 74° 294° (WNW) 11:43:01 437.305
POLYITAN 1 25 Apr 11:47:06 11:51:09 48° 72° (ENE) 11:55:13 437.675
ESTCUBE 1 25 Apr 11:47:26 11:50:40 19° 92° (E) 11:53:53 437.505/2401.250
LO-87 25 Apr 11:48:39 11:51:51 30° 97° (E) 11:55:01 145.935 - 145.965
FO-29 25 Apr 11:49:17 11:54:41 28° 264° (W) 11:59:39 435.910
QB50P2 25 Apr 11:53:29 11:57:39 62° 74° (ENE) 12:01:50 145.880/145.840
Tancredo 1 25 Apr 12:13:55 12:16:04 17° 354° (N) 12:18:14 437.200
OBJECT BX 25 Apr 12:13:59 12:16:21 16° 294° (WNW) 12:18:42 145.990 - 145.960
PCSat 25 Apr 12:15:10 12:20:38 76° 59° (ENE) 12:26:03 145.827
NANOSAT C BR1 25 Apr 12:16:55 12:21:08 86° 255° (WSW) 12:25:21 145.865
BUGSAT 1 25 Apr 12:20:42 12:24:20 30° 69° (ENE) 12:27:56 437.445
ISS 25 Apr 12:23:46 12:26:09 18° 354° (N) 12:28:31 437.550
RS-15 25 Apr 12:31:08 12:41:04 27° 351° (N) 12:50:59 29.354- 29.394
Gurwin Techsat 1B 25 Apr 12:32:28 12:34:05 11° 56° (NE) 12:35:42 435.225
Oscar 19 25 Apr 12:40:10 12:43:59 21° 63° (ENE) 12:47:50 437.125/150
AO-85 25 Apr 12:42:46 12:45:54 20° 113° (ESE) 12:48:54 145.980
EO-79 25 Apr 12:44:07 12:48:04 39° 262° (W) 12:52:02 145.935-145.965
DUCHIFAT 1 25 Apr 12:47:51 12:51:50 42° 261° (W) 12:55:51 145.980
AIST 2D 25 Apr 12:51:04 12:52:56 14° 268° (W) 12:54:48 435.315
DX 1 25 Apr 13:05:03 13:06:59 13° 90° (E) 13:08:53 434.975-435.025
AO-7 25 Apr 13:17:29 13:20:59 13° 42° (NE) 13:24:30 .
O/OREOS (USA 219) 25 Apr 13:17:49 13:18:39 10° 314° (NW) 13:19:30 437.305
SPROUT 25 Apr 13:20:21 13:24:27 46° 99° (E) 13:28:32 437.525
LO-87 25 Apr 13:22:41 13:25:04 17° 293° (WNW) 13:27:26 145.935 - 145.965
ESTCUBE 1 25 Apr 13:23:20 13:27:40 44° 289° (WNW) 13:31:58 437.505/2401.250
POLYITAN 1 25 Apr 13:24:44 13:27:11 15° 268° (W) 13:29:40 437.675
QB50P2 25 Apr 13:32:15 13:33:50 12° 270° (W) 13:35:26 145.880/145.840
VELOX 1 25 Apr 13:42:39 13:47:06 86° 99° (E) 13:51:32 145.980
Tancredo 1 25 Apr 13:50:18 13:52:47 21° 14° (NNE) 13:55:16 437.200
BUGSAT 1 25 Apr 13:56:21 13:59:41 23° 265° (W) 14:03:01 437.445
YUBILEINY 25 Apr 13:59:40 14:02:46 12° 53° (NE) 14:05:52 435.215
PCSat 25 Apr 14:00:14 14:03:20 16° 256° (WSW) 14:06:27 145.827
ISS 25 Apr 14:00:47 14:03:25 22° 14° (NNE) 14:06:05 437.550
ITAMSAT 1 25 Apr 14:04:48 14:06:58 13° 57° (ENE) 14:09:08 435.822/435.867
50 SAT 25 Apr 14:05:08 14:08:38 77° 284° (WNW) 14:12:05 437.505
BEESAT 3 25 Apr 14:06:37 14:09:51 25° 114° (ESE) 14:13:08 437.485
Gurwin Techsat 1B 25 Apr 14:07:49 14:13:07 76° 74° (ENE) 14:18:27 435.225
UKube-1 25 Apr 14:09:16 14:13:24 43° 99° (E) 14:17:30 .
Oscar 19 25 Apr 14:17:54 14:22:55 52° 260° (W) 14:28:00 437.125/150
AO-85 25 Apr 14:21:59 14:26:02 42° 309° (NW) 14:29:54 145.980
